User: anonymous   Login
Location: Aalen
(48.8330°N, 10.1000°E)
Time: 05:12:21
(UTC+02:00)
Language:

SR - Orbit

View from above orbital plane
View from above orbital plane
View from above satellite
View from above satellite

Ground track
Ground track

The orbit data is extracted from the following two-line orbital elements,

1 00046U 60007B   21217.70744719  .00000058  00000-0  34368-4 0  9996
2 00046  66.6915   7.0703 0210756 184.4397 175.4850 14.49422491199143
Epoch (UTC): 05 August 2021 16:58:43
Eccentricity: 0.0210756
inclination: 66.6915°
perigee height: 578 km
apogee height: 877 km
right ascension of ascending node: 7.0703°
argument of perigee: 184.4397°
revolutions per day: 14.49422491
mean anomaly at epoch: 175.4850°
orbit number at epoch: 19914

The dashed part of the orbit path shows where the satellite is in the earth's shadow,  

DLR